When you browse on this site, cookies collect data to enhance your experience and personalize the content and advertising you see.
Visit our Privacy Policy to learn more. By continuing to use the site, you agree to this use of cookies and data.
  • In United Kingdom
  • List of Countries
  • For 7 days
  • Water Temperature
  • Weather Map
  • Weather Widgets
  • user-avatar
    Login

    Hourly Weather Aberdare

    Today, 29 May, Friday

    Time Temperature Precipitation Wind Pressure Humidity
    00:00 +10°C° 0 mm 3 mps 750 mmHg 80%
    01:00 +9°C° 0 mm 3 mps 750 mmHg 78%
    02:00 +8°C° 0 mm 3 mps 750 mmHg 76%
    03:00 +8°C° 0 mm 2 mps 749 mmHg 75%
    04:00 +8°C° 0 mm 3 mps 749 mmHg 75%
    05:00 +9°C° 0 mm 3 mps 749 mmHg 75%
    06:00 +10°C° 0 mm 3 mps 749 mmHg 75%
    07:00 +12°C° 0 mm 3 mps 749 mmHg 73%
    08:00 +13°C° 0 mm 4 mps 749 mmHg 70%
    09:00 +15°C° 0 mm 4 mps 749 mmHg 68%
    10:00 +16°C° 0 mm 5 mps 749 mmHg 66%
    11:00 +17°C° 0 mm 5 mps 749 mmHg 63%
    12:00 +19°C° 0 mm 5 mps 749 mmHg 60%
    13:00 +20°C° 0 mm 5 mps 748 mmHg 60%
    14:00 +20°C° 0 mm 5 mps 748 mmHg 61%
    15:00 +20°C° 0 mm 5 mps 747 mmHg 61%
    16:00 +20°C° 0 mm 4 mps 747 mmHg 65%
    17:00 +19°C° 0 mm 4 mps 747 mmHg 68%
    18:00 +19°C° 0 mm 3 mps 747 mmHg 72%
    19:00 +17°C° 0 mm 3 mps 747 mmHg 77%
    20:00 +14°C° 0 mm 3 mps 747 mmHg 82%
    21:00 +12°C° 0 mm 3 mps 747 mmHg 87%
    22:00 +12°C° 0 mm 2 mps 747 mmHg 87%
    23:00 +10°C° 0 mm 2 mps 747 mmHg 86%

    Tomorrow, 30 May, Saturday

    Time Temperature Precipitation Wind Pressure Humidity
    00:00 +9°C° 0 mm 2 mps 747 mmHg 86%
    01:00 +9°C° 0 mm 2 mps 747 mmHg 85%
    02:00 +8°C° 0 mm 2 mps 746 mmHg 83%
    03:00 +7°C° 0 mm 2 mps 746 mmHg 81%
    04:00 +8°C° 0 mm 2 mps 746 mmHg 78%
    05:00 +9°C° 0 mm 2 mps 746 mmHg 75%
    06:00 +9°C° 0 mm 2 mps 746 mmHg 72%
    07:00 +11°C° 0 mm 3 mps 746 mmHg 69%
    08:00 +13°C° 0 mm 3 mps 746 mmHg 65%
    09:00 +14°C° 0 mm 3 mps 746 mmHg 61%
    10:00 +15°C° 0 mm 4 mps 746 mmHg 61%
    11:00 +18°C° 0 mm 4 mps 746 mmHg 60%
    12:00 +19°C° 0 mm 4 mps 746 mmHg 60%
    13:00 +19°C° 0 mm 4 mps 746 mmHg 61%
    14:00 +20°C° 0 mm 4 mps 746 mmHg 61%
    15:00 +20°C° 0 mm 3 mps 745 mmHg 62%
    16:00 +20°C° 0 mm 3 mps 745 mmHg 66%
    17:00 +19°C° 0 mm 3 mps 745 mmHg 70%
    18:00 +19°C° 0 mm 3 mps 745 mmHg 73%
    19:00 +17°C° 0 mm 3 mps 745 mmHg 78%
    20:00 +16°C° 0 mm 3 mps 745 mmHg 82%
    21:00 +13°C° 0 mm 4 mps 745 mmHg 87%
    22:00 +12°C° 0 mm 3 mps 745 mmHg 87%
    23:00 +11°C° 0 mm 3 mps 745 mmHg 87%

    Day after tomorrow, 31 May, Sunday

    Time Temperature Precipitation Wind Pressure Humidity
    00:00 +10°C° 0 mm 2 mps 745 mmHg 87%
    01:00 +9°C° 0 mm 2 mps 745 mmHg 87%
    02:00 +9°C° 0 mm 3 mps 745 mmHg 87%
    03:00 +8°C° 0 mm 3 mps 745 mmHg 86%
    04:00 +9°C° 0 mm 3 mps 745 mmHg 86%
    05:00 +9°C° 0 mm 3 mps 745 mmHg 85%
    06:00 +10°C° 0 mm 3 mps 745 mmHg 85%
    07:00 +12°C° 0 mm 3 mps 746 mmHg 81%
    08:00 +13°C° 0 mm 4 mps 746 mmHg 76%
    09:00 +15°C° 0 mm 4 mps 746 mmHg 72%
    10:00 +17°C° 0 mm 4 mps 746 mmHg 68%
    11:00 +18°C° 0 mm 4 mps 746 mmHg 65%
    12:00 +20°C° 0 mm 4 mps 746 mmHg 61%
    13:00 +20°C° 0 mm 4 mps 746 mmHg 61%
    14:00 +20°C° 0 mm 4 mps 746 mmHg 60%
    15:00 +20°C° 0 mm 4 mps 746 mmHg 59%
    16:00 +20°C° 0 mm 4 mps 746 mmHg 63%
    17:00 +19°C° 0 mm 3 mps 746 mmHg 67%
    18:00 +19°C° 0 mm 3 mps 746 mmHg 72%
    19:00 +17°C° 0 mm 3 mps 746 mmHg 77%
    20:00 +15°C° 0 mm 2 mps 746 mmHg 82%
    21:00 +13°C° 0 mm 2 mps 746 mmHg 87%
    22:00 +13°C° 0 mm 2 mps 746 mmHg 87%
    23:00 +12°C° 0 mm 2 mps 746 mmHg 86%

    1 June, Monday

    Time Temperature Precipitation Wind Pressure Humidity
    00:00 +10°C° 0 mm 2 mps 746 mmHg 86%
    01:00 +10°C° 0 mm 2 mps 746 mmHg 87%
    02:00 +9°C° 0 mm 2 mps 746 mmHg 88%
    03:00 +9°C° 0 mm 2 mps 746 mmHg 89%
    04:00 +10°C° 0 mm 2 mps 746 mmHg 87%
    05:00 +12°C° 0 mm 2 mps 746 mmHg 86%
    06:00 +13°C° 0 mm 2 mps 746 mmHg 85%
    07:00 +14°C° 0 mm 2 mps 746 mmHg 78%
    08:00 +14°C° 0 mm 3 mps 746 mmHg 71%
    09:00 +17°C° 0 mm 3 mps 746 mmHg 64%
    10:00 +18°C° 0 mm 3 mps 746 mmHg 62%
    11:00 +19°C° 0 mm 3 mps 746 mmHg 60%
    12:00 +19°C° 0 mm 3 mps 746 mmHg 58%
    13:00 +19°C° 0 mm 3 mps 745 mmHg 58%
    14:00 +20°C° 0 mm 3 mps 745 mmHg 58%
    15:00 +20°C° 0 mm 3 mps 745 mmHg 57%
    16:00 +19°C° 0 mm 2 mps 744 mmHg 61%
    17:00 +19°C° 0 mm 2 mps 744 mmHg 65%
    18:00 +18°C° 0 mm 2 mps 744 mmHg 68%
    19:00 +17°C° 0 mm 2 mps 744 mmHg 74%
    20:00 +15°C° 0 mm 2 mps 744 mmHg 79%
    21:00 +13°C° 0 mm 1 mps 744 mmHg 85%
    22:00 +13°C° 0 mm 1 mps 743 mmHg 86%
    23:00 +12°C° 0 mm 1 mps 743 mmHg 87%

    2 June, Tuesday

    Time Temperature Precipitation Wind Pressure Humidity
    00:00 +12°C° 0 mm 2 mps 743 mmHg 88%
    01:00 +11°C° 0 mm 1 mps 743 mmHg 89%
    02:00 +11°C° 0 mm 1 mps 742 mmHg 90%
    03:00 +11°C° 0 mm 1 mps 742 mmHg 90%
    04:00 +11°C° 0 mm 1 mps 742 mmHg 89%
    05:00 +12°C° 0 mm 1 mps 741 mmHg 87%
    06:00 +13°C° 0 mm 1 mps 741 mmHg 85%
    07:00 +15°C° 0 mm 1 mps 741 mmHg 79%
    08:00 +16°C° 0 mm 1 mps 741 mmHg 73%
    09:00 +19°C° 0 mm 1 mps 741 mmHg 68%
    10:00 +18°C° 0.1 mm 2 mps 740 mmHg 67%
    11:00 +19°C° 0.1 mm 2 mps 740 mmHg 65%
    12:00 +19°C° 0.1 mm 2 mps 740 mmHg 64%
    13:00 +19°C° 0.6 mm 3 mps 739 mmHg 69%
    14:00 +18°C° 0.6 mm 3 mps 739 mmHg 75%
    15:00 +18°C° 0.6 mm 4 mps 738 mmHg 80%
    16:00 +17°C° 0.5 mm 3 mps 738 mmHg 83%
    17:00 +16°C° 0.5 mm 3 mps 737 mmHg 87%
    18:00 +14°C° 0.5 mm 3 mps 737 mmHg 91%
    19:00 +13°C° 0.1 mm 3 mps 737 mmHg 92%
    20:00 +13°C° 0.1 mm 2 mps 737 mmHg 93%
    21:00 +13°C° 0.1 mm 2 mps 736 mmHg 95%
    22:00 +12°C° 0 mm 2 mps 736 mmHg 95%
    23:00 +12°C° 0 mm 2 mps 736 mmHg 95%

    3 June, Wednesday

    Time Temperature Precipitation Wind Pressure Humidity
    00:00 +12°C° 0 mm 2 mps 735 mmHg 94%
    01:00 +12°C° 0 mm 2 mps 735 mmHg 95%
    02:00 +10°C° 0 mm 2 mps 734 mmHg 95%
    03:00 +10°C° 0 mm 2 mps 734 mmHg 95%
    04:00 +12°C° 0 mm 2 mps 734 mmHg 95%
    05:00 +11°C° 0 mm 3 mps 734 mmHg 95%
    06:00 +12°C° 0 mm 3 mps 734 mmHg 94%
    07:00 +13°C° 0.1 mm 4 mps 734 mmHg 92%
    08:00 +14°C° 0.1 mm 4 mps 734 mmHg 90%
    09:00 +15°C° 0.1 mm 4 mps 734 mmHg 88%
    10:00 +15°C° 0.2 mm 5 mps 734 mmHg 87%
    11:00 +16°C° 0.2 mm 5 mps 734 mmHg 85%
    12:00 +17°C° 0.2 mm 6 mps 734 mmHg 84%
    13:00 +17°C° 0.6 mm 6 mps 734 mmHg 83%
    14:00 +19°C° 0.6 mm 6 mps 734 mmHg 82%
    15:00 +20°C° 0.6 mm 6 mps 734 mmHg 80%
    16:00 +19°C° 0.6 mm 6 mps 734 mmHg 82%
    17:00 +17°C° 0.6 mm 6 mps 734 mmHg 84%
    18:00 +17°C° 0.6 mm 7 mps 734 mmHg 86%
    19:00 +16°C° 0.2 mm 7 mps 734 mmHg 87%
    20:00 +15°C° 0.2 mm 7 mps 734 mmHg 88%
    21:00 +15°C° 0.2 mm 7 mps 735 mmHg 89%
    22:00 +14°C° 0 mm 7 mps 735 mmHg 90%
    23:00 +12°C° 0 mm 7 mps 735 mmHg 91%
    Show more